Home > Weather > Horw > Past weeks

Flag for Switzerland Past Weather in Horw, Lucerne, Switzerland — Yesterday and Last 2 Weeks

Now
57 °F

Cool.


Feels Like: 57 °F
Forecast: 51 / 80 °F
Wind: No wind

Location: Giswil

Current Time: Jun 27, 2016 at 2:40:50 AM

Latest Report: Jun 27, 2016 at 1:00 AM


Visibility: N/A

Pressure: 30.19 "Hg

Humidity: 98%

Dew Point: 57 °F

Location of HorwLocation

Past Weather in Horw — Graph

°F

Horw Temperature Yesterday

Maximum temperature yesterday: 64 °F (at 4:00 PM)
Minimum temperature yesterday: 57 °F (at 6:00 AM)
Average temperature yesterday: 61 °F

High & Low Weather Summary for the Past Weeks

 TemperatureHumidityPressure
High89 °F (Jun 23, 5:00 PM)100% (Jun 13, 2:00 AM)30.30 "Hg (Jun 13, 2:00 AM)
Low45 °F (Jun 15, 6:00 AM)46% (Jun 23, 6:00 PM)29.59 "Hg (Jun 15, 3:00 PM)
Average61 °F85%29.97 "Hg
* Reported Jun 12 1:00 AM — Jun 27 1:00 AM, Horw, Weather by CustomWeather, © 2016

Note: Actual official high and low records may vary slightly from our data, if they occured in-between our weather recording intervals... More about our weather records

Advertising

Horw Weather History for the Previous 24 Hours

Scroll right to see more
 ConditionsComfort  
Time TempWeatherWind HumidityBarometerVisibility
1:00 AM
Mon, Jun 27
57 °FCool.No wind98%30.19 "HgN/A
12:00 AM57 °FCool.1 mph98%30.19 "HgN/A
11:00 PM
Sun, Jun 26
59 °FCool.2 mph90%30.14 "HgN/A
10:00 PM59 °FCool.1 mph89%30.12 "HgN/A
9:00 PM61 °FCool.1 mph91%30.11 "HgN/A
8:00 PM62 °FCool.2 mph80%30.10 "HgN/A
7:00 PM63 °FMild.2 mph76%30.09 "HgN/A
6:00 PM63 °FMild.1 mph81%30.09 "HgN/A
5:00 PM64 °FMild.2 mph69%30.08 "HgN/A
4:00 PM64 °FMild.2 mph65%30.07 "HgN/A
3:00 PM64 °FMild.No wind72%30.09 "HgN/A
2:00 PM63 °FMild.1 mph73%30.10 "HgN/A
1:00 PM63 °FMild.1 mph73%30.10 "HgN/A
12:00 PM62 °FMild.1 mph75%30.10 "HgN/A
11:00 AM62 °FCool.1 mph78%30.10 "HgN/A
10:00 AM61 °FCool.1 mph83%30.10 "HgN/A
9:00 AM60 °FCool.1 mph89%30.11 "HgN/A
8:00 AM58 °FCool.1 mph94%30.11 "HgN/A
7:00 AM57 °FCool.No wind97%30.10 "HgN/A
6:00 AM57 °FCool.1 mph98%30.09 "HgN/A
5:00 AM57 °FCool.1 mph97%30.10 "HgN/A
4:00 AM58 °FCool.1 mph96%30.11 "HgN/A
3:00 AM58 °FCool.3 mph93%30.11 "HgN/A
2:00 AM59 °FCool.2 mph96%30.12 "HgN/A
Weather by CustomWeather, © 2016

See weather overviewHow to use our weather pages